SCP
0 0 0 0 0 0 0 0 0 0 0 0 0 0 0 0 0 0 0 0 0 -0 -0 0 0 0 0 0 -0 -0 -0 0 -0 -0 -0 -0 -0 -0 -0 -0 -0 -0 -0
0 0 0 0 0 0 0 0 0 0 0 0 0 0 0 0 0 0 0 0 0 0 0 -0 0 0 0 0 0 0 0 0 0 0 0 -0 -0 -0 -0 -0 -0 -0 -0
0 0 0 0 0 0 0 0 0 0 0 0 0 0 0 0 0 0 0 0 0 0 0 0 0 0 0 0 0 0 0 0 0 0 0 0 0 -0 -0 -0 -0 -0 -0
0 0 0 0 0 0 0 0 0 0 0 0 0 0 0 0 0 0 0 0 0 0 0 0 0 0 0 0 0 0 0 0 0 0 0 0 0 -0 -0 -0 -0 -0 -0
0 0 0 0 0 0 0 0 0 0 0 0 0 0 0 0 0 0 0 0 0 0 0 0 0 0 0 0 0 0 0 0 0 0 0 0 0 0 0 0 0 -0 -0
0 0 0 0 0 0 0 0 0 0 0 0 0 0 0 0 0 0 0 0 0 0 0 0 0 0 0 0 0 0 0 0 0 0 0 0 0 0 -0 0 0 -0 0
0 0 0 0 0 0 0 0 0 0 0 0 0 0 0 0 0 0 0 0 0 0 0 0 0 0 0 0 0 0 0 0 0 0 0 0 0 0 0 0 0 0 -0
0 0 0 0 0 0 0 0 0 0 0 0 0 0 0 0 0 0 0 0 0 0 0 0 0 0 0 0 0 0 0 0 0 0 0 0 0 0 0 0 0 0 -0
0 0 0 0 0 0 0 0 0 0 0 0 0 0 0 0 0 0 0 0 0 0 0 0 0 0 0 0 0 0 0 0 0 0 0 0 0 0 0 0 0 0 0
0 0 0 0 0 0 0 0 0 0 0 0 0 0 0 0 0 0 0 0 0 0 0 0 0 0 0 0 0 0 0 0 0 0 0 0 0 0 0 0 0 0 0
0 0 0 0 0 0 0 0 0 0 0 0 0 0 0 0 0 0 0 0 0 0 0 0 0 0 0 0 0 0 0 0 0 0 0 0 0 0 0 0 0 0 0
0 0 0 0 0 0 0 0 0 0 0 0 0 0 0 0 0 0 0 0 0 0 0 0 0 0 0 0 0 0 0 0 0 0 0 0 0 0 0 0 0 0 0
0 0 0 0 0 0 0 0 0 0 0 0 0 0 0 0 0 0 0 0 0 0 0 0 0 0 0 0 0 0 0 0 0 0 0 0 0 0 0 0 0 0 0
0 0 0 0 0 0 0 0 0 0 0 0 0 0 0 0 0 0 0 0 0 0 0 0 0 0 0 0 0 0 0 0 0 0 0 0 0 0 0 0 0 0 0
0 0 0 0 0 0 0 0 0 0 0 0 0 0 0 0 0 0 0 0 0 0 0 0 0 0 0 0 0 0 0 0 0 0 0 0 0 0 0 0 0 0 0
0 0 0 0 0 0 0 0 0 0 0 0 0 0 0 0 0 0 0 0 0 0 0 0 0 0 0 0 0 0 0 0 0 0 0 0 0 0 0 0 0 0 0
0 0 0 0 0 0 0 0 0 0 0 0 0 0 0 0 0 0 0 0 0 0 0 0 0 0 0 0 0 0 0 0 0 0 0 0 0 0 0 0 0 0 0
0 0 -0 0 0 0 0 0 0 0 0 0 0 0 0 0 0 0 0 0 0 0 0 0 0 0 0 0 0 0 0 0 0 0 0 0 0 0 0 0 0 0 0
0 0 0 -0 -0 0 -0 0 0 0 0 -0 0 0 0 0 0 0 0 0 0 0 0 0 0 0 0 0 0 0 0 0 0 0 0 0 0 0 0 0 0 0 0
0 0 0 0 0 -0 -0 -0 -0 0 0 0 -0 0 0 0 0 0 0 0 0 0 0 0 0 0 0 0 0 0 0 0 0 0 0 0 0 0 0 0 0 0 0
0 0 0 0 0 -0 -0 -0 -0 -0 0 0 0 -0 0 0 0 0 0 0 0 0 0 0 0 0 0 0 0 0 0 0 0 0 0 0 0 0 0 0 0 0 0
0 0 0 0 0 0 -0 -0 -0 -0 -0 0 0 0 -0 0 0 0 0 0 0 0 0 0 0 0 0 0 0 0 0 0 0 0 0 0 0 0 0 0 0 0 0
0 0 0 0 0 -0 -0 -0 -0 -0 -0 -0 0 -0 0 -0 0 0 0 0 0 0 0 0 0 0 0 0 0 0 0 0 0 0 0 0 0 0 0 0 0 0 0
0 0 0 0 0 0 0 -0 0 0 -0 -0 -0 0 0 0 -0 0 0 0 0 0 0 0 0 0 0 0 0 0 0 0 0 0 0 0 0 0 0 0 0 0 0
0 0 0 0 0 0 0 0 0 0 0 -0 -0 -0 0 0 -0 -0 0 0 0 0 0 0 0 0 0 0 0 0 0 0 0 0 0 0 0 0 0 0 0 0 0
0 0 0 0 0 0 0 0 0 0 0 0 0 0 0 0 0 -0 0 0 0 0 0 0 0 0 0 0 0 0 0 0 0 0 0 0 0 0 0 0 0 0 0
Wind_Speed_500mb
6 5 28 38 39 36 33 34 29 27 25 25 22 20 26 31 34 34 31 33 34 35 33 31 28 29 31 31 30 31 30 35 37 41 42 44 39 39 39 47 53 48 41
10 7 24 36 37 36 33 36 32 27 26 25 21 22 29 34 36 36 30 38 42 34 28 34 35 34 34 31 38 38 37 39 40 45 47 40 39 46 50 52 46 39 31
16 11 24 34 36 35 33 33 33 30 27 25 24 22 29 38 40 35 42 45 39 30 31 30 29 29 39 35 39 44 48 50 49 45 45 41 48 51 50 43 35 26 20
19 15 22 31 35 34 33 31 30 30 30 28 27 25 27 42 39 43 46 39 32 30 35 34 33 37 33 42 53 59 52 48 45 45 44 50 47 43 41 31 21 18 19
16 16 13 34 34 33 33 32 30 28 31 33 34 33 30 40 42 39 40 35 30 26 33 33 36 39 42 50 59 56 47 42 40 46 55 50 42 39 27 16 19 21 24
16 18 12 36 36 32 33 33 32 31 32 37 36 37 38 36 39 42 36 35 32 30 30 36 38 41 45 52 56 51 44 43 42 51 50 44 39 28 22 23 22 23 24
18 19 17 27 37 36 36 35 34 35 36 37 38 38 41 39 39 37 31 35 33 30 38 37 40 41 43 52 54 46 51 55 46 53 45 41 36 28 26 24 22 23 24
12 19 16 20 31 38 37 38 36 38 38 41 42 41 38 36 38 40 36 34 34 40 39 43 38 38 43 48 53 50 47 52 48 47 43 40 36 32 27 26 23 24 24
9 18 22 25 31 37 40 39 38 40 44 47 48 51 45 44 38 38 41 38 34 44 47 43 40 39 41 46 52 52 48 43 45 43 37 35 35 35 33 30 27 24 25
7 14 21 25 31 38 44 46 42 42 49 52 53 54 55 51 46 43 47 39 33 46 54 45 44 42 41 44 48 50 46 49 48 41 41 32 34 35 30 27 26 24 20
9 18 23 28 33 39 39 49 47 44 46 53 56 49 51 53 51 48 52 50 38 47 50 49 49 47 46 45 46 50 47 49 49 49 39 31 35 34 28 20 18 17 17
16 16 20 27 35 40 43 48 52 52 52 56 60 59 61 61 58 52 58 56 49 52 53 54 49 48 46 51 54 53 50 58 53 44 40 33 32 32 24 20 14 10 16
31 30 29 25 32 42 50 56 57 59 58 64 63 67 68 63 66 61 63 57 57 60 59 56 56 52 50 55 59 57 55 48 53 51 38 35 33 36 22 15 7 2 11
42 33 31 36 35 31 46 60 70 59 62 73 73 71 74 69 68 70 70 66 62 69 66 60 57 54 50 54 63 54 58 52 61 47 41 38 38 31 20 18 12 10 3
36 34 37 37 37 34 34 50 61 78 77 75 80 80 82 81 79 77 77 73 72 75 71 65 59 59 59 58 63 59 56 52 53 47 49 44 40 33 26 31 21 13 14
28 29 30 31 42 50 46 40 44 67 82 88 89 89 89 93 87 86 87 83 76 86 78 70 61 67 69 66 66 60 55 51 44 43 47 47 43 38 37 33 29 19 21
24 28 31 34 32 29 46 63 58 51 47 69 92 101 99 99 93 90 91 90 81 92 82 77 70 72 71 67 70 63 57 53 60 54 53 46 51 45 44 38 36 33 31
35 37 36 36 42 44 43 41 52 66 65 51 65 107 107 104 102 96 93 100 88 95 87 85 83 83 79 74 73 67 62 62 62 64 58 60 49 58 47 44 46 40 33
43 49 52 49 50 52 56 52 52 51 58 65 63 85 111 103 106 101 106 99 94 99 94 100 89 91 87 84 81 75 72 66 63 64 63 62 69 61 59 58 50 45 40
44 48 58 64 65 61 63 68 65 61 54 55 67 76 100 109 106 114 120 113 102 105 103 105 98 99 89 90 85 80 71 65 60 66 66 68 66 72 67 62 59 51 48
41 53 58 67 76 79 87 99 101 94 82 72 68 71 79 101 128 135 131 122 115 115 111 116 111 106 102 98 95 80 72 72 79 78 75 73 83 74 69 71 67 64 59
83 83 86 86 89 96 104 94 82 88 96 95 79 80 68 72 82 135 127 127 124 116 117 114 121 109 110 106 97 90 61 65 73 77 82 86 86 80 80 76 75 72 66
89 87 80 81 84 87 93 100 93 82 86 95 92 86 77 68 75 130 139 130 129 120 125 122 126 119 117 109 106 74 51 33 76 74 74 75 76 78 75 75 73 70 60
72 79 89 99 105 101 89 85 86 92 83 87 90 87 84 70 89 54 133 113 122 126 128 130 126 120 122 118 104 88 95 75 75 46 72 72 72 76 74 74 70 64 54
78 83 89 83 86 89 70 75 86 87 82 77 81 87 85 84 70 89 73 129 145 133 137 128 135 127 125 120 118 112 86 67 94 72 72 79 76 75 71 71 68 63 57
78 83 87 78 75 70 74 74 75 75 78 83 85 89 86 84 75 83 99 107 135 141 136 141 127 143 135 122 128 125 124 104 93 98 76 92 90 80 78 75 69 63 60
Wind_Direction_500mb
247 241 178 175 174 172 171 168 177 173 180 182 180 183 174 164 159 150 140 140 134 134 133 134 142 148 163 173 171 167 164 156 146 124 128 121 120 123 119 117 116 112 112
266 230 183 177 178 177 174 172 178 183 183 182 181 175 172 162 161 153 151 147 149 148 135 141 147 138 143 159 163 159 153 142 131 131 128 125 125 123 125 121 122 120 113
246 246 197 180 182 182 179 181 185 188 185 184 174 170 171 163 167 165 161 157 157 149 147 147 153 147 152 142 141 139 132 129 131 133 132 127 126 130 133 132 124 113 95
269 236 211 186 189 190 183 188 188 187 185 179 171 172 172 170 170 172 168 170 177 171 166 160 178 147 148 143 138 130 131 135 137 138 135 136 136 134 132 127 115 99 90
257 235 242 195 195 199 195 189 190 184 179 176 178 181 182 179 181 182 184 188 193 183 167 175 177 162 148 140 138 139 140 146 153 149 146 145 142 138 132 121 111 103 92
263 246 264 201 200 205 205 197 193 189 187 183 189 191 190 189 189 196 202 206 202 188 176 166 166 161 155 150 147 147 142 154 155 158 155 154 146 141 133 120 109 102 101
256 257 271 217 210 210 204 205 203 200 200 197 196 200 207 212 201 200 201 204 208 190 178 167 161 158 156 156 154 152 152 150 157 153 160 153 136 130 117 108 106 105 100
249 276 270 259 225 222 216 207 211 208 206 198 200 204 206 205 205 205 205 199 201 171 183 158 156 160 159 159 158 160 158 157 167 160 161 151 136 127 112 102 100 104 96
282 273 273 281 237 231 231 225 215 215 213 210 204 204 209 207 216 208 199 199 198 181 172 161 169 173 167 166 168 170 171 168 175 170 167 149 139 129 117 107 94 98 91
286 268 267 268 265 240 234 235 235 226 219 215 213 210 212 217 219 208 203 204 202 185 173 172 175 178 175 175 178 179 179 182 175 179 170 168 160 140 133 117 95 92 85
287 300 290 275 271 258 252 238 237 234 222 215 211 209 205 207 210 211 197 201 205 189 183 181 182 183 180 181 176 179 186 187 179 178 174 171 165 150 145 135 103 76 79
268 269 290 290 276 264 252 247 244 236 228 217 209 204 206 208 210 209 204 204 196 188 193 190 190 187 185 181 177 185 187 181 178 177 172 181 188 168 160 146 106 61 69
298 276 264 281 283 271 260 247 245 244 235 221 214 211 207 209 210 207 207 206 200 194 196 197 194 191 186 182 182 176 183 187 184 176 180 178 185 170 167 164 142 148 71
305 306 280 262 270 282 268 258 242 245 241 231 219 214 206 208 205 206 207 208 210 203 199 198 198 197 188 184 186 186 184 184 180 181 180 181 182 185 180 210 241 263 89
300 295 288 272 263 270 264 263 254 239 246 244 230 217 206 209 206 206 209 210 210 209 203 201 200 201 197 188 187 191 191 190 190 182 178 184 186 186 187 170 191 170 136
306 310 315 307 273 264 266 266 272 264 244 239 235 227 216 209 208 210 210 212 213 207 205 206 201 198 192 189 187 193 198 197 197 196 195 189 196 195 190 184 170 175 166
315 316 318 318 315 304 278 268 268 272 276 244 231 234 224 216 209 210 216 214 212 209 206 205 200 198 188 190 195 193 196 201 210 198 201 204 188 195 191 184 181 172 170
307 308 308 303 304 306 302 295 283 271 269 274 252 228 237 221 214 208 218 215 211 212 210 207 199 194 190 197 200 203 202 202 201 204 204 192 205 187 188 187 181 181 176
294 298 300 304 304 298 300 298 291 291 279 270 264 236 228 236 220 214 216 215 212 214 212 209 202 199 193 197 200 202 199 200 205 204 202 206 195 195 189 186 188 184 181
289 285 285 288 291 297 296 295 293 289 288 282 270 261 236 232 227 221 216 215 212 213 212 208 205 198 204 198 198 198 200 201 199 202 203 202 205 204 202 206 202 201 188
288 290 288 287 287 291 297 298 295 292 286 282 283 262 262 234 225 226 213 213 211 213 210 206 203 204 196 200 197 197 194 195 194 201 207 212 204 200 208 203 207 199 183
302 297 295 293 290 290 294 294 288 286 286 283 280 278 274 255 254 217 220 209 210 207 205 204 205 200 200 202 197 189 176 186 189 190 193 192 198 203 201 202 199 196 193
303 301 296 293 292 291 288 286 282 277 272 274 275 277 276 264 252 220 215 206 206 207 206 212 209 209 201 198 204 190 169 188 189 193 193 193 193 195 196 196 195 194 197
301 294 292 291 293 292 288 284 273 269 274 273 274 274 269 263 246 230 209 206 203 207 210 215 215 215 212 202 199 198 201 198 181 190 197 198 197 198 199 196 196 203 209
304 301 298 298 290 291 283 274 272 272 271 272 271 272 267 264 253 250 243 219 209 209 211 213 218 214 218 213 211 200 200 200 199 192 195 199 203 205 207 207 208 211 212
309 306 303 299 293 287 282 278 272 272 270 267 265 267 266 264 264 250 250 233 207 207 213 216 217 219 219 219 219 214 212 209 202 202 199 201 205 206 211 214 216 217 218
Wind_Speed_850mb
6 5 28 38 39 36 33 34 29 27 25 25 22 20 26 31 34 34 31 33 34 35 33 31 28 29 31 31 30 31 30 35 37 41 42 44 39 39 39 47 53 48 41
10 7 24 36 37 36 33 36 32 27 26 25 21 22 29 34 36 36 30 38 42 34 28 34 35 34 34 31 38 38 37 39 40 45 47 40 39 46 50 52 46 39 31
16 11 24 34 36 35 33 33 33 30 27 25 24 22 29 38 40 35 42 45 39 30 31 30 29 29 39 35 39 44 48 50 49 45 45 41 48 51 50 43 35 26 20
19 15 22 31 35 34 33 31 30 30 30 28 27 25 27 42 39 43 46 39 32 30 35 34 33 37 33 42 53 59 52 48 45 45 44 50 47 43 41 31 21 18 19
16 16 13 34 34 33 33 32 30 28 31 33 34 33 30 40 42 39 40 35 30 26 33 33 36 39 42 50 59 56 47 42 40 46 55 50 42 39 27 16 19 21 24
16 18 12 36 36 32 33 33 32 31 32 37 36 37 38 36 39 42 36 35 32 30 30 36 38 41 45 52 56 51 44 43 42 51 50 44 39 28 22 23 22 23 24
18 19 17 27 37 36 36 35 34 35 36 37 38 38 41 39 39 37 31 35 33 30 38 37 40 41 43 52 54 46 51 55 46 53 45 41 36 28 26 24 22 23 24
12 19 16 20 31 38 37 38 36 38 38 41 42 41 38 36 38 40 36 34 34 40 39 43 38 38 43 48 53 50 47 52 48 47 43 40 36 32 27 26 23 24 24
9 18 22 25 31 37 40 39 38 40 44 47 48 51 45 44 38 38 41 38 34 44 47 43 40 39 41 46 52 52 48 43 45 43 37 35 35 35 33 30 27 24 25
7 14 21 25 31 38 44 46 42 42 49 52 53 54 55 51 46 43 47 39 33 46 54 45 44 42 41 44 48 50 46 49 48 41 41 32 34 35 30 27 26 24 20
9 18 23 28 33 39 39 49 47 44 46 53 56 49 51 53 51 48 52 50 38 47 50 49 49 47 46 45 46 50 47 49 49 49 39 31 35 34 28 20 18 17 17
16 16 20 27 35 40 43 48 52 52 52 56 60 59 61 61 58 52 58 56 49 52 53 54 49 48 46 51 54 53 50 58 53 44 40 33 32 32 24 20 14 10 16
31 30 29 25 32 42 50 56 57 59 58 64 63 67 68 63 66 61 63 57 57 60 59 56 56 52 50 55 59 57 55 48 53 51 38 35 33 36 22 15 7 2 11
42 33 31 36 35 31 46 60 70 59 62 73 73 71 74 69 68 70 70 66 62 69 66 60 57 54 50 54 63 54 58 52 61 47 41 38 38 31 20 18 12 10 3
36 34 37 37 37 34 34 50 61 78 77 75 80 80 82 81 79 77 77 73 72 75 71 65 59 59 59 58 63 59 56 52 53 47 49 44 40 33 26 31 21 13 14
28 29 30 31 42 50 46 40 44 67 82 88 89 89 89 93 87 86 87 83 76 86 78 70 61 67 69 66 66 60 55 51 44 43 47 47 43 38 37 33 29 19 21
24 28 31 34 32 29 46 63 58 51 47 69 92 101 99 99 93 90 91 90 81 92 82 77 70 72 71 67 70 63 57 53 60 54 53 46 51 45 44 38 36 33 31
35 37 36 36 42 44 43 41 52 66 65 51 65 107 107 104 102 96 93 100 88 95 87 85 83 83 79 74 73 67 62 62 62 64 58 60 49 58 47 44 46 40 33
43 49 52 49 50 52 56 52 52 51 58 65 63 85 111 103 106 101 106 99 94 99 94 100 89 91 87 84 81 75 72 66 63 64 63 62 69 61 59 58 50 45 40
44 48 58 64 65 61 63 68 65 61 54 55 67 76 100 109 106 114 120 113 102 105 103 105 98 99 89 90 85 80 71 65 60 66 66 68 66 72 67 62 59 51 48
41 53 58 67 76 79 87 99 101 94 82 72 68 71 79 101 128 135 131 122 115 115 111 116 111 106 102 98 95 80 72 72 79 78 75 73 83 74 69 71 67 64 59
83 83 86 86 89 96 104 94 82 88 96 95 79 80 68 72 82 135 127 127 124 116 117 114 121 109 110 106 97 90 61 65 73 77 82 86 86 80 80 76 75 72 66
89 87 80 81 84 87 93 100 93 82 86 95 92 86 77 68 75 130 139 130 129 120 125 122 126 119 117 109 106 74 51 33 76 74 74 75 76 78 75 75 73 70 60
72 79 89 99 105 101 89 85 86 92 83 87 90 87 84 70 89 54 133 113 122 126 128 130 126 120 122 118 104 88 95 75 75 46 72 72 72 76 74 74 70 64 54
78 83 89 83 86 89 70 75 86 87 82 77 81 87 85 84 70 89 73 129 145 133 137 128 135 127 125 120 118 112 86 67 94 72 72 79 76 75 71 71 68 63 57
78 83 87 78 75 70 74 74 75 75 78 83 85 89 86 84 75 83 99 107 135 141 136 141 127 143 135 122 128 125 124 104 93 98 76 92 90 80 78 75 69 63 60
Wind_Direction_850mb
247 241 178 175 174 172 171 168 177 173 180 182 180 183 174 164 159 150 140 140 134 134 133 134 142 148 163 173 171 167 164 156 146 124 128 121 120 123 119 117 116 112 112
266 230 183 177 178 177 174 172 178 183 183 182 181 175 172 162 161 153 151 147 149 148 135 141 147 138 143 159 163 159 153 142 131 131 128 125 125 123 125 121 122 120 113
246 246 197 180 182 182 179 181 185 188 185 184 174 170 171 163 167 165 161 157 157 149 147 147 153 147 152 142 141 139 132 129 131 133 132 127 126 130 133 132 124 113 95
269 236 211 186 189 190 183 188 188 187 185 179 171 172 172 170 170 172 168 170 177 171 166 160 178 147 148 143 138 130 131 135 137 138 135 136 136 134 132 127 115 99 90
257 235 242 195 195 199 195 189 190 184 179 176 178 181 182 179 181 182 184 188 193 183 167 175 177 162 148 140 138 139 140 146 153 149 146 145 142 138 132 121 111 103 92
263 246 264 201 200 205 205 197 193 189 187 183 189 191 190 189 189 196 202 206 202 188 176 166 166 161 155 150 147 147 142 154 155 158 155 154 146 141 133 120 109 102 101
256 257 271 217 210 210 204 205 203 200 200 197 196 200 207 212 201 200 201 204 208 190 178 167 161 158 156 156 154 152 152 150 157 153 160 153 136 130 117 108 106 105 100
249 276 270 259 225 222 216 207 211 208 206 198 200 204 206 205 205 205 205 199 201 171 183 158 156 160 159 159 158 160 158 157 167 160 161 151 136 127 112 102 100 104 96
282 273 273 281 237 231 231 225 215 215 213 210 204 204 209 207 216 208 199 199 198 181 172 161 169 173 167 166 168 170 171 168 175 170 167 149 139 129 117 107 94 98 91
286 268 267 268 265 240 234 235 235 226 219 215 213 210 212 217 219 208 203 204 202 185 173 172 175 178 175 175 178 179 179 182 175 179 170 168 160 140 133 117 95 92 85
287 300 290 275 271 258 252 238 237 234 222 215 211 209 205 207 210 211 197 201 205 189 183 181 182 183 180 181 176 179 186 187 179 178 174 171 165 150 145 135 103 76 79
268 269 290 290 276 264 252 247 244 236 228 217 209 204 206 208 210 209 204 204 196 188 193 190 190 187 185 181 177 185 187 181 178 177 172 181 188 168 160 146 106 61 69
298 276 264 281 283 271 260 247 245 244 235 221 214 211 207 209 210 207 207 206 200 194 196 197 194 191 186 182 182 176 183 187 184 176 180 178 185 170 167 164 142 148 71
305 306 280 262 270 282 268 258 242 245 241 231 219 214 206 208 205 206 207 208 210 203 199 198 198 197 188 184 186 186 184 184 180 181 180 181 182 185 180 210 241 263 89
300 295 288 272 263 270 264 263 254 239 246 244 230 217 206 209 206 206 209 210 210 209 203 201 200 201 197 188 187 191 191 190 190 182 178 184 186 186 187 170 191 170 136
306 310 315 307 273 264 266 266 272 264 244 239 235 227 216 209 208 210 210 212 213 207 205 206 201 198 192 189 187 193 198 197 197 196 195 189 196 195 190 184 170 175 166
315 316 318 318 315 304 278 268 268 272 276 244 231 234 224 216 209 210 216 214 212 209 206 205 200 198 188 190 195 193 196 201 210 198 201 204 188 195 191 184 181 172 170
307 308 308 303 304 306 302 295 283 271 269 274 252 228 237 221 214 208 218 215 211 212 210 207 199 194 190 197 200 203 202 202 201 204 204 192 205 187 188 187 181 181 176
294 298 300 304 304 298 300 298 291 291 279 270 264 236 228 236 220 214 216 215 212 214 212 209 202 199 193 197 200 202 199 200 205 204 202 206 195 195 189 186 188 184 181
289 285 285 288 291 297 296 295 293 289 288 282 270 261 236 232 227 221 216 215 212 213 212 208 205 198 204 198 198 198 200 201 199 202 203 202 205 204 202 206 202 201 188
288 290 288 287 287 291 297 298 295 292 286 282 283 262 262 234 225 226 213 213 211 213 210 206 203 204 196 200 197 197 194 195 194 201 207 212 204 200 208 203 207 199 183
302 297 295 293 290 290 294 294 288 286 286 283 280 278 274 255 254 217 220 209 210 207 205 204 205 200 200 202 197 189 176 186 189 190 193 192 198 203 201 202 199 196 193
303 301 296 293 292 291 288 286 282 277 272 274 275 277 276 264 252 220 215 206 206 207 206 212 209 209 201 198 204 190 169 188 189 193 193 193 193 195 196 196 195 194 197
301 294 292 291 293 292 288 284 273 269 274 273 274 274 269 263 246 230 209 206 203 207 210 215 215 215 212 202 199 198 201 198 181 190 197 198 197 198 199 196 196 203 209
304 301 298 298 290 291 283 274 272 272 271 272 271 272 267 264 253 250 243 219 209 209 211 213 218 214 218 213 211 200 200 200 199 192 195 199 203 205 207 207 208 211 212
309 306 303 299 293 287 282 278 272 272 270 267 265 267 266 264 264 250 250 233 207 207 213 216 217 219 219 219 219 214 212 209 202 202 199 201 205 206 211 214 216 217 218